Radiation Dose measured at exhaust stack monitor of Fukushima Daiichi Nuclear Power Station
Date,Time,Unit 5 6 shared exhaust cylinders,Wind Direction,Wind Velocity(m/s)
2021/12/20,00:00,4.2,west,6.8
2021/12/20,00:10,3.9,west,6.8
2021/12/20,00:20,4.0,west-northwest,7.1
2021/12/20,00:30,4.0,west-northwest,5.8
2021/12/20,00:40,4.1,west-northwest,5.1
2021/12/20,00:50,3.9,northwest,4.9
2021/12/20,01:00,4.0,northwest,6.9
2021/12/20,01:10,4.2,west-northwest,6.9
2021/12/20,01:20,4.0,west-northwest,6.4
2021/12/20,01:30,3.9,west-northwest,5.3
2021/12/20,01:40,4.1,west-northwest,5.6
2021/12/20,01:50,3.9,west,5.2
2021/12/20,02:00,3.9,west-northwest,4.8
2021/12/20,02:10,4.0,west-northwest,5.7
2021/12/20,02:20,4.2,west-northwest,5.2
2021/12/20,02:30,4.2,west-northwest,5.9
2021/12/20,02:40,4.1,west-northwest,6.6
2021/12/20,02:50,4.1,west-northwest,5.4
2021/12/20,03:00,4.0,west-northwest,4.1
2021/12/20,03:10,4.2,west-northwest,3.2
2021/12/20,03:20,4.1,west-northwest,3.0
2021/12/20,03:30,4.3,west-northwest,4.2
2021/12/20,03:40,4.1,west-northwest,4.2
2021/12/20,03:50,4.2,west-northwest,4.4
2021/12/20,04:00,4.0,west-northwest,5.0
2021/12/20,04:10,4.0,west-northwest,5.9
2021/12/20,04:20,4.1,west-northwest,6.4
2021/12/20,04:30,4.0,west,6.4
2021/12/20,04:40,4.1,west-northwest,4.2
2021/12/20,04:50,4.1,west,3.6
2021/12/20,05:00,4.0,west,3.2
2021/12/20,05:10,4.2,northwest,3.8
2021/12/20,05:20,4.1,west-northwest,3.9
2021/12/20,05:30,3.9,west,2.5
2021/12/20,05:40,4.0,west,3.0
2021/12/20,05:50,4.0,west,3.6
2021/12/20,06:00,4.1,west,5.0
2021/12/20,06:10,3.8,west-southwest,4.8
2021/12/20,06:20,4.0,west-southwest,3.5
2021/12/20,06:30,4.0,west,3.8
2021/12/20,06:40,3.9,west-southwest,4.6
2021/12/20,06:50,4.1,west-southwest,5.3
2021/12/20,07:00,4.2,west-southwest,5.4
2021/12/20,07:10,4.1,west-southwest,5.0
2021/12/20,07:20,4.1,west-southwest,4.6
2021/12/20,07:30,4.1,west,5.3
2021/12/20,07:40,4.0,west,5.7
2021/12/20,07:50,4.0,west,6.3
2021/12/20,08:00,4.1,west,7.8
2021/12/20,08:10,3.9,west,6.2
2021/12/20,08:20,3.9,west,4.8
2021/12/20,08:30,4.0,west,4.6
2021/12/20,08:40,4.2,west,3.8
2021/12/20,08:50,3.9,west-southwest,2.9
2021/12/20,09:00,3.9,west,2.6
2021/12/20,09:10,4.1,west,3.6
2021/12/20,09:20,3.9,west,2.6
2021/12/20,09:30,3.9,southwest,1.7
2021/12/20,09:40,4.1,south-southwest,1.5
2021/12/20,09:50,4.0,south-southeast,0.9
2021/12/20,10:00,4.0,south-southeast,0.8
2021/12/20,10:10,4.1,east,1.5
2021/12/20,10:20,3.9,east,1.5
2021/12/20,10:30,4.0,northeast,1.9
2021/12/20,10:40,4.2,east-northeast,1.5
2021/12/20,10:50,4.1,east,2.6
2021/12/20,11:00,3.9,northeast,2.2
2021/12/20,11:10,4.0,east,2.0
2021/12/20,11:20,4.0,east-northeast,4.0
2021/12/20,11:30,4.2,east-northeast,3.3
2021/12/20,11:40,3.9,northeast,4.2
2021/12/20,11:50,4.0,east-northeast,4.6
2021/12/20,12:00,3.9,east-northeast,5.1
2021/12/20,12:10,4.1,northeast,5.6
2021/12/20,12:20,4.0,northeast,5.1
2021/12/20,12:30,4.0,east-northeast,4.5
2021/12/20,12:40,4.1,east-northeast,4.5
2021/12/20,12:50,4.2,east-northeast,5.2
2021/12/20,13:00,3.9,east-northeast,4.4
2021/12/20,13:10,4.0,east-northeast,3.5
2021/12/20,13:20,4.0,northeast,3.4
2021/12/20,13:30,4.1,east,3.1
2021/12/20,13:40,4.0,east-southeast,4.1
2021/12/20,13:50,4.1,east-southeast,3.9
2021/12/20,14:00,4.1,east,3.3
2021/12/20,14:10,4.1,east,3.8
2021/12/20,14:20,3.9,east-southeast,3.0
2021/12/20,14:30,4.0,southeast,1.5
2021/12/20,14:40,3.8,southeast,1.7
2021/12/20,14:50,4.0,east-northeast,0.9
2021/12/20,15:00,4.1,south-southeast,0.9
2021/12/20,15:10,4.0,-,CALM
2021/12/20,15:20,3.9,south-southeast,0.8
2021/12/20,15:30,4.0,west,0.8
2021/12/20,15:40,4.0,southwest,1.2
2021/12/20,15:50,4.0,west-southwest,3.8
2021/12/20,16:00,4.1,west-southwest,4.0
2021/12/20,16:10,3.9,west-southwest,5.2
2021/12/20,16:20,4.0,west-southwest,4.1
2021/12/20,16:30,4.0,west-southwest,4.2
2021/12/20,16:40,4.0,west,4.7
2021/12/20,16:50,3.9,west-southwest,3.6
2021/12/20,17:00,4.0,west,2.6
2021/12/20,17:10,3.9,west-southwest,2.0
2021/12/20,17:20,4.1,southwest,2.0
2021/12/20,17:30,4.0,south,3.6
2021/12/20,17:40,4.1,south,5.0
2021/12/20,17:50,3.9,south-southwest,5.7
2021/12/20,18:00,4.1,south-southwest,6.4
2021/12/20,18:10,4.0,south-southwest,5.4
2021/12/20,18:20,4.0,south-southwest,4.7
2021/12/20,18:30,4.2,south-southwest,4.3
2021/12/20,18:40,3.8,south-southwest,4.9
2021/12/20,18:50,4.0,south-southwest,5.0
2021/12/20,19:00,3.9,south-southwest,5.0
2021/12/20,19:10,3.8,south-southwest,5.5
2021/12/20,19:20,4.0,south,5.8
2021/12/20,19:30,4.2,south-southwest,6.8
2021/12/20,19:40,4.0,south-southwest,7.5
2021/12/20,19:50,4.1,south-southwest,7.4
2021/12/20,20:00,4.0,south-southwest,7.7
2021/12/20,20:10,3.8,south-southwest,7.4
2021/12/20,20:20,4.0,south-southwest,7.5
2021/12/20,20:30,3.9,south-southwest,7.5
2021/12/20,20:40,3.9,south-southwest,8.1
2021/12/20,20:50,3.9,south-southwest,8.5
2021/12/20,21:00,3.8,south-southwest,8.0
2021/12/20,21:10,4.1,south,8.7
2021/12/20,21:20,4.0,south-southwest,8.8
2021/12/20,21:30,4.0,south,9.8
2021/12/20,21:40,3.9,south,8.9
2021/12/20,21:50,4.0,south-southwest,8.1
2021/12/20,22:00,3.9,south,7.9
2021/12/20,22:10,4.1,south-southwest,8.6
2021/12/20,22:20,4.1,south-southwest,10.3
2021/12/20,22:30,3.9,south-southwest,9.5
2021/12/20,22:40,4.1,south-southwest,9.4
2021/12/20,22:50,4.1,south-southwest,9.5
2021/12/20,23:00,3.8,south-southwest,9.8
2021/12/20,23:10,4.1,south-southwest,8.6
2021/12/20,23:20,4.0,south-southwest,8.1
2021/12/20,23:30,3.8,south-southwest,9.3
2021/12/20,23:40,4.0,south-southwest,8.7
2021/12/20,23:50,4.0,southwest,7.9
